Home   Weather   Alfeld (Leine)   Past weeks

Flag for Germany Past Weather in Alfeld (Leine), Lower Saxony, Germany — Yesterday and Last 2 Weeks

Now
45 °F

Sunny.


Feels Like: 37 °F
Forecast: 45 / 51 °F
Wind: 16 mph from East

Location: Hannover

Current Time: May 1, 2017 at 8:29:02 am

Latest Report: May 1, 2017 at 7:50 am


Visibility: 10 mi

Pressure: 29.86 "Hg

Humidity: 71%

Dew Point: 36 °F

Location of Alfeld (Leine)Location

Past Weather in Alfeld (Leine) — Graph

°F

Alfeld (Leine) Temperature Yesterday

Maximum temperature yesterday: 59 °F (at 2:50 pm)
Minimum temperature yesterday: 30 °F (at 5:20 am)
Average temperature yesterday: 48 °F

High & Low Weather Summary for the Past Weeks

 TemperatureHumidityPressure
High59 °F (Apr 30, 2:50 pm)100% (Apr 17, 3:50 am)30.63 "Hg (Apr 17, 3:50 am)
Low25 °F (Apr 20, 4:50 am)29% (Apr 30, 5:50 pm)29.62 "Hg (Apr 25, 3:20 am)
Average43 °F71%30.09 "Hg
* Reported Apr 16 7:20 am — May 1 7:20 am, Alfeld (Leine), Weather by CustomWeather, © 2017

Note: Actual official high and low records may vary slightly from our data, if they occured in-between our weather recording intervals... More about our weather records

Advertising

Alfeld (Leine) Weather History for the Previous 24 Hours

Scroll right to see more
 ConditionsComfort  
Time TempWeatherWind HumidityBarometerVisibility
7:20 am
Mon, May 1
43 °FSunny.14 mph76%29.86 "Hg10 mi
6:50 am41 °FSunny.12 mph81%29.86 "Hg10 mi
6:20 am41 °FSunny.10 mph76%29.86 "Hg10 mi
5:50 am41 °FSunny.13 mph76%29.86 "Hg10 mi
5:20 am43 °FClear.12 mph71%29.86 "Hg10 mi
4:50 am43 °FClear.12 mph71%29.86 "Hg10 mi
4:20 am43 °FClear.15 mph71%29.86 "Hg10 mi
3:50 am43 °FClear.14 mph76%29.86 "Hg10 mi
3:20 am45 °FClear.10 mph66%29.89 "Hg10 mi
2:20 am46 °FClear.14 mph62%29.89 "Hg10 mi
1:50 am46 °FClear.14 mph62%29.89 "Hg10 mi
12:50 am48 °FClear.16 mph58%29.89 "Hg10 mi
12:20 am48 °FClear.15 mph58%29.89 "Hg10 mi
11:50 pm
Sun, Apr 30
50 °FClear.15 mph58%29.89 "Hg10 mi
11:20 pm52 °FClear.16 mph54%29.89 "Hg10 mi
10:50 pm52 °FClear.18 mph54%29.89 "Hg10 mi
10:20 pm54 °FClear.16 mph47%29.89 "Hg10 mi
9:50 pm54 °FClear.14 mph44%29.89 "Hg10 mi
9:20 pm55 °FClear.14 mph38%29.89 "Hg10 mi
8:50 pm55 °FClear.17 mph36%29.89 "Hg10 mi
8:20 pm57 °FPassing clouds.18 mph33%29.89 "HgN/A
7:50 pm57 °FSunny.20 mph33%29.89 "Hg10 mi
7:20 pm57 °FSunny.24 mph31%29.89 "Hg10 mi
6:50 pm59 °FSunny.22 mph29%29.89 "Hg10 mi
6:20 pm59 °FPassing clouds.22 mph29%29.89 "HgN/A
5:50 pm59 °FSunny.23 mph29%29.89 "Hg10 mi
5:20 pm59 °FSunny.23 mph31%29.92 "Hg10 mi
4:50 pm59 °FPassing clouds.22 mph31%29.92 "HgN/A
4:20 pm59 °FPassing clouds.21 mph31%29.95 "HgN/A
3:50 pm59 °FSunny.24 mph34%29.95 "Hg10 mi
3:20 pm59 °FPassing clouds.17 mph34%29.98 "HgN/A
2:50 pm59 °FPassing clouds.20 mph34%29.98 "HgN/A
2:20 pm57 °FSunny.20 mph36%29.98 "Hg10 mi
1:50 pm57 °FPassing clouds.17 mph36%30.01 "HgN/A
1:20 pm57 °FPassing clouds.18 mph39%30.01 "HgN/A
12:50 pm57 °FPassing clouds.17 mph39%30.01 "HgN/A
12:20 pm55 °FPassing clouds.17 mph41%30.04 "HgN/A
11:50 am54 °FSunny.21 mph41%30.04 "Hg10 mi
11:20 am54 °FPassing clouds.20 mph41%30.07 "HgN/A
10:50 am52 °FPassing clouds.18 mph44%30.07 "HgN/A
10:20 am52 °FSunny.18 mph47%30.07 "Hg10 mi
9:50 am50 °FSunny.15 mph50%30.07 "Hg10 mi
9:20 am50 °FSunny.13 mph54%30.09 "Hg10 mi
8:50 am46 °FSunny.12 mph62%30.09 "Hg10 mi
8:20 am43 °FPassing clouds.9 mph71%30.09 "HgN/A
Weather by CustomWeather, © 2017

See weather overviewHow to use our weather pages